Weather History for Glendive, MT

Change the Weather History Date:

Monday, January 14, 2013

  Actual Average Record
Temperature  
Mean Temperature 6 °F -  
Max Temperature 15 °F 22 °F 51 °F (2006)
Min Temperature -4 °F 5 °F -32 °F (2005)
Degree Days  
Heating Degree Days 60    
Moisture  
Dew Point 3 °F    
Average Humidity 81    
Maximum Humidity 92    
Minimum Humidity 58    
Precipitation  
Precipitation 0.00 in - - ()
Sea Level Pressure  
Sea Level Pressure 30.02 in    
Wind  
Wind Speed 4 mph (SSW)    
Max Wind Speed 12 mph    
Max Gust Speed 20 mph    
Visibility 10 miles    
Events      
Averages and records for this station are not official NWS values.
T = Trace of Precipitation, MM = Missing Value Source: NWS Daily Summary

Daily Weather History Graph

Daily Weather History Graph

Search for Another Location

Airport:

Trip Planner

Search our weather history database for the weather conditions in past years. The results will help you decide how hot, cold, wet, or windy it might be!

Date:

Astronomy

Jan. 14, 2013 Rise Set
Actual Time 7:41 AM MST 4:35 PM MST
Civil Twilight 7:07 AM MST 5:10 PM MST
Nautical Twilight 6:29 AM MST 5:48 PM MST
Astronomical Twilight 5:52 AM MST 6:24 PM MST
Moon 9:00 AM MST (1/14) 8:42 PM MST (1/14)
Length of Visible Light 10h 03m
Length of Day
8h 54m
Waxing Crescent, 12% of the Moon is Illuminated
Jan 14
Waxing Crescent
Jan 18
First Quarter
Jan 26
Full
Feb 3
Last Quarter
Feb 10
New

Hourly Weather History & Observations

Time (MST) Temp. Windchill Dew Point Humidity Pressure Visibility Wind Dir Wind Speed Gust Speed Precip Events Conditions
12:15 AM 3.2 °F - 1.4 °F 92% 30.10 in 10.0 mi Calm Calm - N/A   Overcast
12:35 AM 3.2 °F - -0.4 °F 85% - 10.0 mi Calm Calm - N/A   Mostly Cloudy
12:55 AM 3.2 °F - 1.4 °F 92% - 10.0 mi Calm Calm - N/A   Mostly Cloudy
1:15 AM 3.2 °F - 1.4 °F 92% 30.10 in 10.0 mi Calm Calm - N/A   Overcast
1:55 AM 3.2 °F -4.2 °F -2.2 °F 78% - 10.0 mi North 3.5 mph - N/A   Overcast
2:15 AM 3.2 °F - -0.4 °F 85% 30.11 in 10.0 mi Calm Calm - N/A   Overcast
2:55 AM 1.4 °F -9.9 °F -0.4 °F 92% - 10.0 mi West 5.8 mph - N/A   Overcast
3:15 AM 1.4 °F -8.3 °F -5.8 °F 72% - 10.0 mi WNW 4.6 mph - N/A   Overcast
3:35 AM 1.4 °F -8.3 °F -0.4 °F 92% 30.11 in 10.0 mi WNW 4.6 mph - N/A   Overcast
3:55 AM 1.4 °F - -0.4 °F 92% - 10.0 mi Calm Calm - N/A   Overcast
4:15 AM 1.4 °F -6.2 °F -0.4 °F 92% - 10.0 mi West 3.5 mph - N/A   Overcast
4:35 AM 1.4 °F - -4.0 °F 78% - 10.0 mi Calm Calm - N/A   Overcast
4:55 AM 1.4 °F -8.3 °F -2.2 °F 85% - 10.0 mi SW 4.6 mph - N/A   Overcast
5:15 AM -0.4 °F -8.3 °F -5.8 °F 78% - 10.0 mi SW 3.5 mph - N/A   Mostly Cloudy
5:35 AM -2.2 °F -14.2 °F -7.6 °F 78% - 10.0 mi WSW 5.8 mph - N/A   Clear
5:55 AM -4.0 °F -17.8 °F -9.4 °F 78% 30.10 in 10.0 mi WSW 6.9 mph - N/A   Clear
6:15 AM -4.0 °F -12.4 °F -11.2 °F 71% 30.11 in 10.0 mi West 3.5 mph - N/A   Clear
6:35 AM -2.2 °F -15.6 °F -7.6 °F 78% 30.11 in 10.0 mi WSW 6.9 mph - N/A   Clear
7:15 AM -0.4 °F - -5.8 °F 78% 30.12 in 10.0 mi Calm Calm - N/A   Clear
7:35 AM -2.2 °F - -5.8 °F 85% 30.12 in 10.0 mi Calm Calm - N/A   Clear
7:55 AM -0.4 °F - -2.2 °F 92% 30.12 in 10.0 mi Calm Calm - N/A   Clear
8:35 AM -0.4 °F -12.0 °F -5.8 °F 78% 30.13 in 10.0 mi SSE 5.8 mph - N/A   Clear
8:55 AM -0.4 °F -14.7 °F -2.2 °F 92% 30.11 in 10.0 mi ESE 8.1 mph - N/A   Scattered Clouds
9:15 AM 1.4 °F -12.5 °F -2.2 °F 85% 30.14 in 7.0 mi WSW 8.1 mph 19.6 mph N/A   Overcast
9:35 AM 1.4 °F -8.3 °F -2.2 °F 85% 30.12 in 10.0 mi WSW 4.6 mph - N/A   Overcast
9:55 AM 3.2 °F -4.2 °F 1.4 °F 92% 30.11 in 10.0 mi SSW 3.5 mph - N/A   Overcast
10:15 AM 1.4 °F -12.5 °F -2.2 °F 85% 30.11 in 10.0 mi South 8.1 mph - N/A   Overcast
10:35 AM 1.4 °F -9.9 °F -0.4 °F 92% 30.10 in 10.0 mi SSE 5.8 mph - N/A   Overcast
10:55 AM 3.2 °F -11.3 °F 1.4 °F 92% 30.09 in 10.0 mi South 9.2 mph - N/A   Overcast
11:15 AM 3.2 °F -12.2 °F 1.4 °F 92% 30.08 in 10.0 mi South 10.4 mph - N/A   Overcast
11:35 AM 5.0 °F -8.1 °F 1.4 °F 85% 30.07 in 10.0 mi South 8.1 mph - N/A   Overcast
12:15 PM 6.8 °F -4.8 °F 3.2 °F 85% 30.05 in 10.0 mi South 6.9 mph - N/A   Overcast
12:35 PM 8.6 °F -6.3 °F 6.8 °F 92% 30.04 in 10.0 mi South 11.5 mph - N/A   Overcast
12:55 PM 8.6 °F -5.5 °F 3.2 °F 79% 30.03 in 10.0 mi South 10.4 mph - N/A   Overcast
1:15 PM 8.6 °F -3.7 °F 5.0 °F 85% 30.02 in 10.0 mi South 8.1 mph - N/A   Overcast
1:35 PM 10.4 °F -4.1 °F 6.8 °F 85% 30.01 in 10.0 mi South 11.5 mph - N/A   Overcast
1:55 PM 10.4 °F -4.1 °F 6.8 °F 85% 30.00 in 10.0 mi South 11.5 mph - N/A   Overcast
2:15 PM 12.2 °F 0.7 °F 6.8 °F 79% 30.01 in 10.0 mi South 8.1 mph - N/A   Overcast
2:35 PM 12.2 °F 2.9 °F 6.8 °F 79% 30.00 in 10.0 mi South 5.8 mph - N/A   Overcast
2:55 PM 12.2 °F 1.7 °F 8.6 °F 85% 30.00 in 10.0 mi South 6.9 mph - N/A   Overcast
3:15 PM 14.0 °F 5.1 °F 8.6 °F 79% 30.00 in 10.0 mi South 5.8 mph - N/A   Overcast
3:35 PM 14.0 °F 5.1 °F 8.6 °F 79% 30.00 in 10.0 mi SSE 5.8 mph - N/A   Overcast
3:55 PM 14.0 °F 6.5 °F 8.6 °F 79% 30.00 in 10.0 mi South 4.6 mph - N/A   Overcast
4:15 PM 15.8 °F 6.1 °F 10.4 °F 79% 30.01 in 10.0 mi SSW 6.9 mph - N/A   Overcast
4:35 PM 15.8 °F - 8.6 °F 73% 30.00 in 10.0 mi Calm Calm - N/A   Overcast
4:55 PM 14.0 °F 5.1 °F 8.6 °F 79% 29.99 in 10.0 mi South 5.8 mph - N/A   Overcast
5:15 PM 15.8 °F 10.2 °F 10.4 °F 79% 29.99 in 10.0 mi SSE 3.5 mph - N/A   Overcast
5:55 PM 14.0 °F 2.0 °F 6.8 °F 73% 29.97 in 10.0 mi SSW 9.2 mph - N/A   Overcast
6:15 PM 14.0 °F 2.9 °F 8.6 °F 79% 29.97 in 10.0 mi SSW 8.1 mph - N/A   Overcast
6:35 PM 14.0 °F 2.9 °F 8.6 °F 79% 29.95 in 10.0 mi SSW 8.1 mph - N/A   Overcast
6:55 PM 14.0 °F 2.9 °F 8.6 °F 79% 29.95 in 10.0 mi SSW 8.1 mph - N/A   Overcast
7:35 PM 15.8 °F 7.2 °F 6.8 °F 68% 29.96 in 10.0 mi SW 5.8 mph - N/A   Overcast
7:55 PM 15.8 °F 6.1 °F 6.8 °F 68% 29.95 in 10.0 mi SW 6.9 mph - N/A   Overcast
8:15 PM 12.2 °F 6.1 °F 1.4 °F 62% 29.95 in 10.0 mi SW 3.5 mph - N/A   Mostly Cloudy
8:35 PM 15.8 °F - 6.8 °F 68% 29.95 in 10.0 mi Calm Calm - N/A   Overcast
8:55 PM 15.8 °F 8.6 °F 6.8 °F 68% 29.94 in 10.0 mi SSW 4.6 mph - N/A   Overcast
9:15 PM 15.8 °F 3.4 °F 3.2 °F 58% 29.94 in 10.0 mi WSW 10.4 mph - N/A   Overcast
9:35 PM 15.8 °F 8.6 °F 6.8 °F 68% 29.94 in 10.0 mi SSW 4.6 mph - N/A   Overcast
9:55 PM 15.8 °F 7.2 °F 6.8 °F 68% 29.94 in 10.0 mi South 5.8 mph - N/A   Overcast
10:35 PM 15.8 °F 4.2 °F 8.6 °F 73% 29.93 in 10.0 mi South 9.2 mph - N/A   Overcast
10:55 PM 14.0 °F 2.9 °F 8.6 °F 79% 29.92 in 10.0 mi South 8.1 mph - N/A   Overcast
11:15 PM 15.8 °F 5.1 °F 8.6 °F 73% 29.91 in 10.0 mi SSW 8.1 mph - N/A   Mostly Cloudy
11:35 PM 15.8 °F 5.1 °F 8.6 °F 73% 29.91 in 10.0 mi SSW 8.1 mph - N/A   Clear
11:55 PM 15.8 °F 5.1 °F 8.6 °F 73% 29.91 in 10.0 mi SW 8.1 mph - N/A   Mostly Cloudy